{"data":{"norad_id":49390,"intl_designator":"2021-101A","name":"YAOGAN-35 01A","alt_names":[],"object_type":"PAYLOAD","status":"ACTIVE","operator":null,"country":"PRC","launch_date":"2021-11-06","launch_site_code":"XICLF","launch_vehicle":null,"mission":null,"orbit_class":"UNKNOWN","rcs_meters":null,"size_class":null,"mass_kg":null,"dimensions":null,"purposes":[],"wikipedia_slug":null,"has_3d_model":false,"image_url":null,"decayed_at":null,"tle_current":{"epoch":"2026-05-25T05:03:18.491616Z","epoch_age_seconds":60144,"freshness":"FRESH","line1":"1 49390U 21101A   26145.21063069  .00008355  00000+0  31591-3 0  9997","line2":"2 49390  34.9905  61.1936 0005562 182.5412 177.5276 15.26214804253361","mean_motion":15.26214804,"eccentricity":0.0005562,"inclination_deg":34.9905,"raan_deg":61.1936,"arg_perigee_deg":182.5412,"mean_anomaly_deg":177.5276,"bstar":0.00031591,"rev_number":25336,"period_min":94.351070126299,"perigee_km":483.32156377581,"apogee_km":490.95849794494,"semimajor_km":6865.2770308604,"source":"CELESTRAK","updated_at":"2026-05-25T13:37:57.192191Z"}}}